Le nostre stazioni meteo in Italia

Pubblicità
Il mio iltempo24.it
Kleine Brogel, Belgio (6479): Temperatura & dewpoint: 15.08.2019 14:00:00 - 21.08.2019 14:00:00 (CEST)Kleine Brogel, Belgio (6479): velocità del vento & gusts: 15.08.2019 14:00:00 - 21.08.2019 14:00:00 (CEST)Kleine Brogel, Belgio (6479): direzione del vento: 15.08.2019 14:00:00 - 21.08.2019 14:00:00 (CEST)Kleine Brogel, Belgio (6479): reduced air pressure: 15.08.2019 14:00:00 - 21.08.2019 14:00:00 (CEST)Kleine Brogel, Belgio (6479): visibility: 15.08.2019 14:00:00 - 21.08.2019 14:00:00 (CEST)
Data & Tempo tt [°C] td [°C] ff [km/h] ff [kn] fx [km/h] fx [kn] dd ppp [hPa] vv [km]
21.08.2019 14:00:00 20,0 8,4 4 2 - - N 1028,4 20
21.08.2019 13:00:00 20,0 9,0 4 2 14 8 N 1028,7 20
21.08.2019 12:00:00 19,0 8,1 4 2 11 6 N 1029,2 20
21.08.2019 11:00:00 19,0 10,4 4 2 - - N 1029,4 20
21.08.2019 10:00:00 17,0 11,3 4 2 4 2 N 1029,2 20
21.08.2019 09:00:00 15,0 11,8 4 2 4 2 N 1029,4 15
21.08.2019 08:00:00 10,0 9,0 4 2 - - N 1029,0 15
21.08.2019 07:00:00 8,0 7,6 4 2 4 2 N 1028,9 12
21.08.2019 06:00:00 8,0 7,4 4 2 4 2 N 1028,4 9
21.08.2019 05:00:00 8,0 7,2 4 2 - - N 1028,2 10
21.08.2019 04:00:00 9,0 8,3 4 2 4 2 N 1028,2 12
21.08.2019 03:00:00 10,0 9,0 4 2 4 2 N 1027,9 17
21.08.2019 02:00:00 10,0 8,4 4 2 - - N 1027,9 20
21.08.2019 01:00:00 11,0 9,7 4 2 4 2 N 1027,5 20
21.08.2019 00:00:00 12,0 9,5 4 2 7 4 N 1027,2 20
20.08.2019 23:00:00 13,0 9,9 4 2 - - N 1026,7 20
20.08.2019 22:00:00 15,0 9,6 4 2 11 6 N 1026,2 20
20.08.2019 21:00:00 17,0 8,9 4 2 14 8 N 1025,5 20
20.08.2019 20:00:00 19,0 9,1 7 4 - - NO 1025,0 20
20.08.2019 19:00:00 20,0 10,2 4 2 18 10 N 1024,0 20
20.08.2019 18:00:00 20,0 10,6 7 4 32 18 O 1023,8 20
20.08.2019 17:00:00 21,0 8,7 22 12 - - OSO 1023,6 20
20.08.2019 16:00:00 20,0 8,9 18 10 29 16 OSO 1023,2 20
20.08.2019 15:00:00 21,0 8,6 18 10 29 16 SO 1023,0 20
20.08.2019 14:00:00 21,0 10,1 18 10 - - SO 1023,0 20
20.08.2019 13:00:00 20,0 10,6 18 10 25 14 SO 1023,1 20
20.08.2019 12:00:00 19,0 11,0 14 8 25 14 OSO 1023,0 20
20.08.2019 11:00:00 18,0 12,3 11 6 - - OSO 1022,7 20
20.08.2019 10:00:00 16,0 12,0 11 6 18 10 SO 1022,8 20
20.08.2019 09:00:00 15,0 11,9 11 6 18 10 OSO 1022,3 20
20.08.2019 08:00:00 13,0 11,1 11 6 - - SSO 1022,3 20
20.08.2019 07:00:00 11,0 9,9 7 4 11 6 SSO 1021,7 20
20.08.2019 06:00:00 11,0 9,5 7 4 11 6 SSO 1021,1 20
20.08.2019 05:00:00 11,0 9,1 7 4 - - SSO 1021,1 20
20.08.2019 04:00:00 12,0 9,5 7 4 11 6 SSO 1021,0 20
20.08.2019 03:00:00 12,0 8,8 7 4 14 8 SSO 1020,8 20
20.08.2019 02:00:00 12,0 8,8 4 2 - - N 1020,8 20
20.08.2019 01:00:00 13,5 9,2 4 2 14 8 N 1020,6 20
20.08.2019 00:00:00 14,0 9,1 11 6 14 8 OSO 1020,0 20
19.08.2019 23:00:00 15,2 9,7 11 6 - - SO 1019,6 20
19.08.2019 22:00:00 16,0 9,8 4 2 11 6 N 1019,1 20
19.08.2019 21:00:00 18,0 9,8 7 4 29 16 SO 1018,7 20
19.08.2019 20:00:00 19,0 9,7 11 6 - - OSO 1018,2 20
19.08.2019 19:00:00 20,0 10,1 18 10 32 18 OSO 1017,8 20
19.08.2019 18:00:00 20,0 10,4 22 12 32 18 OSO 1017,8 20
19.08.2019 17:00:00 20,0 10,1 18 10 - - OSO 1017,5 20
19.08.2019 16:00:00 21,0 10,5 18 10 36 19 O 1017,3 20
19.08.2019 15:00:00 20,0 11,4 18 10 36 19 OSO 1017,4 20
19.08.2019 14:00:00 19,0 10,5 22 12 - - OSO 1017,0 20
19.08.2019 13:00:00 20,0 11,2 18 10 36 19 OSO 1016,7 20
19.08.2019 12:00:00 19,0 11,1 22 12 36 19 SO 1016,4 20
19.08.2019 11:00:00 18,0 11,2 25 14 - - OSO 1016,1 20
19.08.2019 10:00:00 - - - - - - - - -
19.08.2019 09:00:00 16,2 11,5 22 12 32 18 SO 1015,8 20
19.08.2019 08:00:00 13,0 10,5 14 8 - - SO 1015,2 20
19.08.2019 07:00:00 12,0 10,4 11 6 18 10 SSO 1014,8 15
19.08.2019 06:00:00 - - - - - - - - -
19.08.2019 05:00:00 - - - - - - - - -
19.08.2019 04:00:00 - - - - - - - - -
19.08.2019 03:00:00 - - - - - - - - -
19.08.2019 02:00:00 - - - - - - - - -
19.08.2019 01:00:00 - - - - - - - - -
19.08.2019 00:00:00 - - - - - - - - -
18.08.2019 23:00:00 - - - - - - - - -
18.08.2019 22:00:00 - - - - - - - - -
18.08.2019 21:00:00 - - - - - - - - -
18.08.2019 20:00:00 - - - - - - - - -
18.08.2019 19:00:00 - - - - - - - - -
18.08.2019 18:00:00 - - - - - - - - -
18.08.2019 17:00:00 - - - - - - - - -
18.08.2019 16:00:00 - - - - - - - - -
18.08.2019 15:00:00 - - - - - - - - -
18.08.2019 14:00:00 - - - - - - - - -
18.08.2019 13:00:00 - - - - - - - - -
18.08.2019 12:00:00 - - - - - - - - -
18.08.2019 11:00:00 - - - - - - - - -
18.08.2019 10:00:00 - - - - - - - - -
18.08.2019 09:00:00 - - - - - - - - -
18.08.2019 08:00:00 - - - - - - - - -
18.08.2019 07:00:00 - - - - - - - - -
18.08.2019 06:00:00 - - - - - - - - -
18.08.2019 05:00:00 - - - - - - - - -
18.08.2019 04:00:00 - - - - - - - - -
18.08.2019 03:00:00 - - - - - - - - -
18.08.2019 02:00:00 - - - - - - - - -
18.08.2019 01:00:00 - - - - - - - - -
18.08.2019 00:00:00 - - - - - - - - -
17.08.2019 23:00:00 - - - - - - - - -
17.08.2019 22:00:00 - - - - - - - - -
17.08.2019 21:00:00 - - - - - - - - -
17.08.2019 20:00:00 - - - - - - - - -
17.08.2019 19:00:00 - - - - - - - - -
17.08.2019 18:00:00 - - - - - - - - -
17.08.2019 17:00:00 - - - - - - - - -
17.08.2019 16:00:00 - - - - - - - - -
17.08.2019 15:00:00 - - - - - - - - -
17.08.2019 14:00:00 - - - - - - - - -
17.08.2019 13:00:00 - - - - - - - - -
17.08.2019 12:00:00 - - - - - - - - -
17.08.2019 11:00:00 - - - - - - - - -
17.08.2019 10:00:00 - - - - - - - - -
17.08.2019 09:00:00 - - - - - - - - -
17.08.2019 08:00:00 - - - - - - - - -
17.08.2019 07:00:00 - - - - - - - - -
17.08.2019 06:00:00 - - - - - - - - -
17.08.2019 05:00:00 - - - - - - - - -
17.08.2019 04:00:00 - - - - - - - - -
17.08.2019 03:00:00 - - - - - - - - -
17.08.2019 02:00:00 - - - - - - - - -
17.08.2019 01:00:00 - - - - - - - - -
17.08.2019 00:00:00 - - - - - - - - -
16.08.2019 23:00:00 - - - - - - - - -
16.08.2019 22:00:00 - - - - - - - - -
16.08.2019 21:00:00 - - - - - - - - -
16.08.2019 20:00:00 - - - - - - - - -
16.08.2019 19:00:00 - - - - - - - - -
16.08.2019 18:00:00 - - - - - - - - -
16.08.2019 17:00:00 - - - - - - - - -
16.08.2019 16:00:00 - - - - - - - - -
16.08.2019 15:00:00 - - - - - - - - -
16.08.2019 14:00:00 - - - - - - - - -
16.08.2019 13:00:00 - - - - - - - - -
16.08.2019 12:00:00 - - - - - - - - -
16.08.2019 11:00:00 - - - - - - - - -
16.08.2019 10:00:00 - - - - - - - - -
16.08.2019 09:00:00 - - - - - - - - -
16.08.2019 08:00:00 - - - - - - - - -
16.08.2019 07:00:00 - - - - - - - - -
16.08.2019 06:00:00 - - - - - - - - -
16.08.2019 05:00:00 - - - - - - - - -
16.08.2019 04:00:00 - - - - - - - - -
16.08.2019 03:00:00 - - - - - - - - -
16.08.2019 02:00:00 - - - - - - - - -
16.08.2019 01:00:00 - - - - - - - - -
16.08.2019 00:00:00 - - - - - - - - -
15.08.2019 23:00:00 - - - - - - - - -
15.08.2019 22:00:00 - - - - - - - - -
15.08.2019 21:00:00 - - - - - - - - -
15.08.2019 20:00:00 - - - - - - - - -
15.08.2019 19:00:00 - - - - - - - - -
15.08.2019 18:00:00 - - - - - - - - -
15.08.2019 17:00:00 - - - - - - - - -
15.08.2019 16:00:00 - - - - - - - - -
15.08.2019 15:00:00 - - - - - - - - -
15.08.2019 14:00:00 - - - - - - - - -

tt = Temperatura
td = dewpoint
ff = velocità del vento
fx = gusts
dd = direzione del vento
ppp = reduced air pressure
vv = visibility

Stazioni seguenti

WeatherPro
AMSI
MeteoEarth